Regional Weather Roundup
Issued by NWS

Home | Current Version | Previous Version | Graphics & Text | Print | Product List | Glossary On
Versions: 1 2 3 4 5 6 7 8 9 10 11 12 13 14 15 16 17 18 19 20 21 22 23 24 25 26 27 28 29 30 31 32 33 34 35 36 37 38 39 40 41 42 43 44 45 46 47 48 49 50
000
ASUS43 KIND 290059
RWRIN

WEATHER ROUNDUP FOR INDIANA
NATIONAL WEATHER SERVICE INDIANAPOLIS IN
900 PM EDT FRI APR 28 2017

NOTE: "FAIR" INDICATES FEW OR NO CLOUDS BELOW 12,000 FEET WITH NO
SIGNIFICANT WEATHER AND/OR OBSTRUCTIONS TO VISIBILITY.

* - STATION DOES NOT REPORT WEATHER SUCH AS PRECIPITATION OR FOG.

+ - STATION NOT QUALITY CONTROLLED BY THE NATIONAL WEATHER SERVICE.
    USE DATA WITH CAUTION...ESPECIALLY DEWPOINT AND RELATIVE
    HUMIDITY OBSERVATIONS.

INZ001>003-010>013-019-020-290200-
NORTHWEST INDIANA

CITY           SKY/WX    TMP DP  RH WIND       PRES   REMARKS
GARY /AIRPORT/ PTCLDY    50  45  81 CALM      29.90R
MONTICELLO +   LGT RAIN  54  52  94 E3        29.89R
RENSSELAER +   CLOUDY    55  52  88 E7        29.88S

$$

LMZ046-743>745-290200-
SOUTHERN LAKE MICHIGAN

STATION/POSITION TIME  TEMP    WIND        PRES    WAVE
                       AIR SEA DIR/SP/G            HT
                 (UTC) (F)     (DEG/KT/KT) (MB)    (FT)
BURNS HARBOR     0040   50     100/  2/  5 1012.5S
MICHIGAN CITY    0030   52     120/  3/  3   N/A
5NW MICH CITY    0050   46 46                N/A     1

$$

INZ004-005-014>016-021>024-290200-
NORTH CENTRAL INDIANA

CITY           SKY/WX    TMP DP  RH WIND       PRES   REMARKS
ELKHART        CLOUDY    57  48  72 S6        29.92R
GOSHEN         CLOUDY    55  46  71 SE8       29.91R
SOUTH BEND     CLOUDY    56  50  80 S6        29.91S

$$

INZ006>009-017-018-025>027-290200-
NORTHEAST INDIANA

CITY           SKY/WX    TMP DP  RH WIND       PRES   REMARKS
ANGOLA *+      MOCLDY    54  43  66 SE3       29.93R
FORT WAYNE     CLOUDY    53  48  83 NE5       29.92R
KENDALLVILLE + CLOUDY    52  49  89 CALM      29.93R

$$

INZ028-029-035-036-043>045-051>053-290200-
WEST CENTRAL INDIANA

CITY           SKY/WX    TMP DP  RH WIND       PRES   REMARKS
CRAWFORDSVL +  DRIZZLE   53  53 100 E5        29.87F
GREENCASTLE +  CLOUDY    54  54 100 NE3       29.87F FOG
LAFAYETTE      LGT RAIN  54  54 100 E5        29.88S FOG
TERRE HAUTE    LGT RAIN  57  54  89 E9        29.83F

$$

INZ030>032-037>040-046>048-054>057-064-065-290200-
CENTRAL INDIANA

CITY           SKY/WX    TMP DP  RH WIND       PRES   REMARKS
COLUMBUS       LGT RAIN  61  57  88 S6        29.86R
INDIANAPOLIS   CLOUDY    56  54  93 NE8       29.86R
-EAGLE CREEK   CLOUDY    57  54  89 NE5       29.86F
KOKOMO +       RAIN      54  52  93 NE3       29.92R FOG
SHELBYVILLE    LGT RAIN  59  54  83 N24G33    29.89R

$$

INZ033-034-041-042-049-050-058-059-290200-
EAST CENTRAL INDIANA

CITY           SKY/WX    TMP DP  RH WIND       PRES   REMARKS
MUNCIE         LGT RAIN  57  53  86 S8G24     29.88R
RICHMOND +     HVY RAIN  54  52  94 E17       29.92R VSB 1

$$

INZ060-061-067>069-081>083-085>088-290200-
SOUTHWEST INDIANA

CITY           SKY/WX    TMP DP  RH WIND       PRES   REMARKS
EVANSVILLE     LGT RAIN  74  68  81 S8        29.81F

$$

INZ062-063-066-070>080-084-089>092-290200-
SOUTH CENTRAL AND SOUTHEAST INDIANA

CITY           SKY/WX    TMP DP  RH WIND       PRES   REMARKS
BLOOMINGTON    CLOUDY    59  57  93 N7        29.84R
MADISON *+     CLOUDY    70  63  78 S8        29.85S
SEYMOUR +      TSTM      64  63  94 N9        29.83R

$$




USA.gov is the U.S. government's official web portal to all federal, state and local government web resources and services.